Preview of NWS' New Version of Forecast
This preview is not operational and should not be used for support decisions.

Regional Weather Roundup (RWR)

Issued by National Weather Service (NWS)

                            
000
ASUS45 KABQ 211401
RWRNM 
NEW MEXICO REGIONAL WEATHER ROUNDUP
NATIONAL WEATHER SERVICE ALBUQUERQUE NM
700 AM MST THU FEB 21 2019

NOTE: "FAIR" MEANS FEW OR NO CLOUDS BELOW 12,000 FEET AGL WITH NO
       SIGNIFICANT WEATHER OR OBSTRUCTIONS TO VISION.

      THIS PRODUCT IS RELEASED AS TWO VERSIONS.  ONE VERSION NEAR
      THE TOP OF THE HOUR CONTAINING PRELIMINARY DATA FROM ALBUQUERQUE
      AND OTHER STATIONS.  A FINAL VERSION WITH ADDITIONAL DATA IS 
      ISSUED ABOUT 10 MINUTES AFTER THE HOUR.
 
NMZ501-503-504-510>518-211500-
NORTHWEST PLATEAU/NORTHCENTRAL MOUNTAINS
  
CITY           SKY/WX    TMP DP  RH WIND       PRES   REMARKS
FARMINGTON     CLOUDY    29  19  66 SE10      29.66R WCI  20          
LOS ALAMOS     CLOUDY    24   9  53 S6        29.71R WCI  17          
SANTA FE       CLOUDY    22  14  71 W5        29.72R WCI  16          
TAOS           CLOUDY    14  11  87 CALM      29.73R                  
ANGEL FIRE       N/A      4   1  85 CALM      29.68S                  

$$
NMZ402-403-502-505>509-211500-
WESTCENTRAL MOUNTAINS/SOUTHWEST MOUNTAINS
  
CITY           SKY/WX    TMP DP  RH WIND       PRES   REMARKS
GALLUP         LGT SNOW  24  21  88 SE3       29.66S FOG              
GRANTS         CLOUDY    26  13  59 SE5       29.70R WCI  20          
SILVER CITY    MOCLDY    32   5  31 S6        29.75R WCI  26          

$$
NMZ407-409-411-412-211500-
SOUTHERN DESERTS
  
CITY           SKY/WX    TMP DP  RH WIND       PRES   REMARKS
DEMING         MOCLDY    29   5  36 NW5       29.77R WCI  24          
LAS CRUCES     FAIR      28  11  49 W3        29.77R                  
ALAMOGORDO     FAIR      30   7  37 CALM      29.76F                  
T OR C         FAIR      29   6  38 W5        29.72R WCI  24          

$$
NMZ519>523-211500-
CENTRAL VALLEYS/CENTRAL HIGHLANDS
  
CITY           SKY/WX    TMP DP  RH WIND       PRES   REMARKS
ALBUQUERQUE    CLOUDY    27  15  61 N9        29.74R WCI  18          
DOUBLE EAGLE   MOCLDY    27  16  63 N5        29.73R WCI  21          
MORIARTY ARPT  MOCLDY    22  15  74 S5        29.74R WCI  16          
CLINES CORNERS FAIR      25   9  50 SW14      29.72R WCI  13          
BELEN          FAIR      27  17  65 CALM      29.74R                  
SOCORRO        FAIR      25   9  51 CALM      29.75R                  

$$
NMZ524>526-539-540-211500-
SOUTHCENTRAL MOUNTAINS
  
CITY           SKY/WX    TMP DP  RH WIND       PRES   REMARKS
RUIDOSO        NOT AVBL                                               

$$
NMZ527>531-211500-
NORTHEAST HIGHLANDS/NORTHEAST PLAINS
  
CITY           SKY/WX    TMP DP  RH WIND       PRES   REMARKS
LAS VEGAS      FAIR      20   8  60 S10       29.71S WCI   9          
RATON          FAIR      12   5  73 NE5       29.72R WCI   4          
CLAYTON        FAIR      18   8  65 W8        29.75R WCI   8          

$$
NMZ532>537-211500-
EASTCENTRAL PLAINS
  
CITY           SKY/WX    TMP DP  RH WIND       PRES   REMARKS
SANTA ROSA     FAIR      16  11  81 NE6       29.76S WCI   7          
TUCUMCARI      FAIR      18   8  65 CALM      29.76S                  
CANNON AFB     MOCLDY    29  12  50 E5        29.78F WCI  24          
CLOVIS AIRPORT FAIR      28  16  60 NE6       29.78  WCI  22          

$$
NMZ028-029-538-211500-
SOUTHEAST PLAINS
  
CITY           SKY/WX    TMP DP  RH WIND       PRES   REMARKS
ROSWELL        FAIR      27  10  49 NW3       29.77R                  
ARTESIA        FAIR      30  10  43 CALM      29.78R                  
CARLSBAD       FAIR      36  17  46 NW3       29.77R                  
HOBBS          MOCLDY    39  25  56 S9        29.80S WCI  33          


$$